Pensacola NAS, FL

9:53 AM CST on December 16, 2017 (GMT -0600)
Pensacola Naval Air Station

Weather History for KNPA - July, 2013

Change the Weather History Date:

Saturday, July 13, 2013

  Actual Average Record
Temperature  
Mean Temperature 76 °F -  
Max Temperature 86 °F 87 °F 100 °F (2000)
Min Temperature 69 °F 71 °F 69 °F (2013)
Cooling Degree Days 12    
Growing Degree Days 26 (Base 50)    
Moisture  
Dew Point 71 °F    
Average Humidity 85    
Maximum Humidity 97    
Minimum Humidity 72    
Precipitation  
Precipitation 0.24 in - - ()
Sea Level Pressure  
Sea Level Pressure 29.92 in    
Wind  
Wind Speed 6 mph (ESE)    
Max Wind Speed 20 mph    
Max Gust Speed 26 mph    
Visibility 10 miles    
Events Rain , Thunderstorm    
Averages and records for this station are not official NWS values.
T = Trace of Precipitation, MM = Missing Value Source: NWS Daily Summary

Daily Weather History Graph

Daily Weather History Graph

Search for Another Location

Airport or City:

Trip Planner

Search our weather history database for the weather conditions in past years. The results will help you decide how hot, cold, wet, or windy it might be!

Date:

Astronomy

Jul. 13, 2013 Rise Set
Actual Time 5:56 AM CDT 7:53 PM CDT
Civil Twilight 5:29 AM CDT 8:20 PM CDT
Nautical Twilight 4:56 AM CDT 8:52 PM CDT
Astronomical Twilight 4:21 AM CDT 9:27 PM CDT
Moon 10:46 AM CDT (7/13) 11:01 PM CDT (7/13)
Length of Visible Light 14h 50m
Length of Day
13h 56m
Waxing Crescent, 26% of the Moon is Illuminated
Jul 13
Waxing Crescent
Jul 15
First Quarter
Jul 22
Full
Jul 29
Last Quarter
Aug 6
New

Hourly Weather History & Observations

Time (CDT) Temp. Heat Index Dew Point Humidity Pressure Visibility Wind Dir Wind Speed Gust Speed Precip Events Conditions
12:11 AM 73.4 °F - 69.8 °F 88% 29.93 in 10.0 mi SE 16.1 mph 26.5 mph N/A Thunderstorm Thunderstorm
12:56 AM 73.0 °F - 66.9 °F 81% 29.88 in 10.0 mi Calm Calm - N/A Thunderstorm Thunderstorm
1:18 AM 71.6 °F - 66.2 °F 83% 29.87 in 10.0 mi WNW 3.5 mph - N/A   Clear
1:56 AM 72.0 °F - 66.0 °F 81% 29.88 in 10.0 mi NE 5.8 mph - N/A   Clear
2:56 AM 73.0 °F - 68.0 °F 84% 29.89 in 10.0 mi Calm Calm - N/A   Clear
3:56 AM 71.1 °F - 68.0 °F 90% 29.89 in 10.0 mi Calm Calm - N/A   Clear
4:56 AM 70.0 °F - 69.1 °F 97% 29.88 in 10.0 mi Calm Calm - N/A   Clear
5:56 AM 71.1 °F - 69.1 °F 93% 29.89 in 10.0 mi Calm Calm - N/A   Clear
6:56 AM 73.9 °F - 72.0 °F 93% 29.90 in 10.0 mi Calm Calm - N/A   Clear
7:56 AM 79.0 °F - 73.9 °F 84% 29.92 in 10.0 mi Calm Calm - N/A   Clear
8:56 AM 82.0 °F 87.9 °F 73.9 °F 76% 29.93 in 10.0 mi SE 4.6 mph - N/A   Scattered Clouds
9:56 AM 82.9 °F 90.2 °F 75.0 °F 77% 29.93 in 10.0 mi SSE 4.6 mph - N/A   Scattered Clouds
10:56 AM 84.0 °F 92.6 °F 75.9 °F 76% 29.94 in 10.0 mi South 6.9 mph - N/A   Scattered Clouds
11:56 AM 84.9 °F 93.3 °F 75.0 °F 72% 29.93 in 10.0 mi SSE 9.2 mph - N/A   Scattered Clouds
12:40 PM 84.2 °F 92.3 °F 75.2 °F 74% 29.93 in 10.0 mi South 9.2 mph - N/A Thunderstorm Thunderstorm
12:56 PM 82.9 °F 89.4 °F 73.9 °F 74% 29.94 in 10.0 mi South 9.2 mph - N/A Thunderstorm Thunderstorm
1:54 PM 82.4 °F 89.5 °F 75.2 °F 79% 29.94 in 10.0 mi East 6.9 mph - N/A Thunderstorm Thunderstorm
2:11 PM 77.0 °F - 69.8 °F 78% 29.95 in 1.5 mi North 12.7 mph 20.7 mph 0.00 in Rain , Thunderstorm Heavy Thunderstorms and Rain
2:44 PM 71.6 °F - 68.0 °F 88% 29.93 in 3.0 mi SW 8.1 mph - N/A Rain , Thunderstorm Thunderstorms and Rain
2:54 PM 69.8 °F - 64.4 °F 83% 29.95 in 10.0 mi SSW 10.4 mph - N/A Rain , Thunderstorm Light Thunderstorms and Rain
2:56 PM 69.1 °F - 64.9 °F 87% 29.96 in 10.0 mi SSW 11.5 mph - 0.21 in Rain , Thunderstorm Light Thunderstorms and Rain
3:56 PM 73.9 °F - 69.1 °F 85% 29.88 in 10.0 mi SE 9.2 mph - 0.02 in Rain , Thunderstorm Light Thunderstorms and Rain
4:07 PM 75.2 °F - 69.8 °F 83% 29.87 in 10.0 mi SE 8.1 mph - 0.01 in Rain Light Rain
4:56 PM 73.0 °F - 69.1 °F 87% 29.92 in 10.0 mi North 3.5 mph - 0.01 in   Mostly Cloudy
5:56 PM 75.9 °F - 70.0 °F 82% 29.90 in 10.0 mi Calm Calm - N/A   Unknown
6:56 PM 75.9 °F - 72.0 °F 87% 29.92 in 10.0 mi North 3.5 mph - N/A   Clear
7:56 PM 73.9 °F - 72.0 °F 93% 29.94 in 10.0 mi NW 5.8 mph - N/A   Clear
8:56 PM 73.0 °F - 71.1 °F 93% 29.93 in 10.0 mi Calm Calm - N/A   Clear
9:56 PM 75.0 °F - 73.0 °F 94% 29.95 in 10.0 mi NE 5.8 mph - N/A   Clear
10:56 PM 75.9 °F - 73.9 °F 94% 29.99 in 10.0 mi North 8.1 mph - N/A   Overcast
11:15 PM 75.2 °F - 73.4 °F 94% 29.97 in 10.0 mi NE 10.4 mph - N/A   Overcast
11:27 PM 75.2 °F - 71.6 °F 89% 29.97 in 10.0 mi ENE 19.6 mph 25.3 mph N/A Thunderstorm Thunderstorm
11:56 PM 73.9 °F - 71.1 °F 91% 29.99 in 10.0 mi East 9.2 mph - N/A Thunderstorm Thunderstorm